SCP
2 1 1 1 1 1 1 0 0 0 0 0 0 0 0 1 1 1 1 2 2 3 4 5 5 5 5 5 4 4 3 3 2 2 2 2 1 1 1 1 1 1 1 1 1 0 0 0 0
1 1 1 2 1 1 1 0 0 0 0 1 1 1 1 1 1 1 1 2 2 3 4 5 5 5 5 5 4 4 3 3 3 2 2 2 1 1 1 1 1 1 1 1 1 0 0 0 0
1 1 1 2 1 1 1 0 0 0 0 1 2 2 2 2 2 2 2 2 2 3 4 4 5 5 5 5 5 4 4 3 3 3 2 2 2 1 1 1 1 1 1 1 1 0 0 0 0
1 1 1 1 1 0 0 0 0 0 1 1 2 3 3 3 3 3 2 2 2 3 4 5 5 5 5 5 5 4 4 3 3 2 2 2 2 1 1 1 1 1 1 1 0 0 0 0 0
1 1 1 1 1 0 0 0 0 0 1 1 2 3 4 4 3 3 3 2 3 4 5 5 5 5 5 5 4 4 3 3 2 2 2 2 2 2 1 1 1 1 1 1 0 0 0 0 0
1 1 1 1 0 0 0 0 0 0 1 2 2 3 4 4 4 3 3 3 3 5 5 5 5 5 5 4 4 3 3 3 2 2 2 2 2 1 1 1 1 1 1 1 1 0 0 0 0
1 1 1 0 0 0 0 0 0 1 2 2 3 3 4 5 4 4 3 3 4 5 5 5 5 5 5 4 4 3 3 3 2 2 2 2 1 1 1 1 1 1 1 1 1 0 0 0 0
1 1 0 0 0 0 0 1 1 1 2 3 3 3 4 4 5 4 4 4 4 5 5 5 5 5 4 4 3 3 3 2 2 2 2 1 1 1 1 1 1 1 1 1 1 0 0 0 0
1 1 0 0 0 0 1 1 2 2 3 4 4 4 4 4 5 5 5 5 4 4 4 5 5 5 4 3 3 3 2 2 2 2 1 1 1 1 1 1 1 1 1 1 0 0 0 0 0
1 1 0 0 0 0 1 1 2 2 3 4 4 4 4 4 5 5 5 4 4 4 4 5 5 5 4 4 3 3 3 2 2 1 1 1 1 1 1 1 1 1 1 0 0 0 0 0 0
1 1 0 0 0 0 1 1 2 2 2 3 3 3 3 4 4 4 4 4 4 4 4 5 5 5 4 4 4 4 3 2 1 1 1 1 1 1 1 1 1 0 0 0 0 0 0 0 0
1 0 0 0 0 0 0 1 2 2 2 2 3 3 3 3 3 3 3 4 4 4 4 5 5 4 4 4 4 4 3 2 1 1 1 1 1 1 1 1 1 0 0 0 1 0 0 0 0
0 0 0 0 0 0 0 1 1 2 2 2 2 3 3 3 3 3 3 4 4 4 4 4 4 4 4 4 4 4 3 2 2 1 1 1 1 1 1 1 1 1 0 1 1 0 0 0 0
0 0 0 0 0 0 0 1 1 1 2 2 2 3 3 2 2 2 3 3 3 4 3 4 4 4 4 4 4 3 3 2 2 1 1 1 1 1 1 1 1 1 1 1 0 0 0 0 0
0 0 0 0 0 0 0 1 1 1 1 2 2 2 2 2 2 2 2 2 3 3 3 3 4 4 3 3 3 3 2 2 2 1 1 1 1 1 1 1 1 1 1 1 0 0 0 0 0
0 0 0 0 0 0 0 0 0 1 1 1 1 2 2 2 2 2 2 2 2 3 3 3 3 3 3 3 3 3 2 2 2 1 1 1 1 1 1 1 1 1 1 1 1 1 0 0 0
0 0 0 0 0 0 0 0 0 1 1 1 1 1 1 2 2 1 1 1 2 2 2 2 2 2 3 3 3 3 2 2 2 2 2 2 2 2 2 2 1 1 1 1 1 1 1 1 1
0 0 0 0 0 0 0 0 0 1 1 1 1 1 1 1 1 1 1 1 1 2 2 2 2 2 2 2 3 3 2 2 2 2 3 2 2 2 2 2 2 2 2 1 1 1 1 1 1
0 0 0 0 0 0 0 0 0 0 0 1 1 1 1 1 1 1 1 1 1 1 2 2 2 2 2 2 2 2 2 2 2 2 3 3 2 2 2 3 2 2 2 2 2 2 1 1 1
0 0 0 0 0 0 0 0 0 0 0 0 0 0 1 1 1 0 0 1 1 1 1 1 1 1 2 2 2 2 2 2 2 2 2 2 2 3 3 3 3 3 3 4 4 3 3 2 2
0 0 0 0 0 0 0 0 0 0 0 0 0 0 1 1 0 0 0 0 1 1 1 1 1 1 1 2 2 2 2 2 2 2 2 2 2 3 3 3 3 4 4 5 5 5 4 3 3
0 0 0 0 0 0 0 0 0 0 0 0 0 0 0 0 0 0 0 0 0 0 1 1 1 1 1 2 2 2 2 2 1 2 2 2 2 2 3 3 3 4 4 5 5 5 5 4 5
0 0 0 0 0 0 0 0 0 0 0 0 0 0 0 0 0 0 0 0 0 0 0 1 1 1 1 1 1 1 1 1 1 1 2 2 2 2 2 3 3 3 4 5 5 5 5 5 6
0 0 0 0 0 0 0 0 0 0 0 0 0 0 0 0 0 0 0 0 0 0 0 1 1 1 1 1 1 1 1 1 1 1 2 2 2 2 2 2 3 3 4 4 5 5 5 6 6
0 0 0 0 0 0 0 0 0 0 0 0 0 0 0 0 0 0 0 0 0 0 0 0 1 1 1 1 1 1 1 1 1 1 1 2 2 2 2 2 3 3 4 4 4 5 5 5 6
0 0 0 0 0 0 0 0 0 0 0 0 0 0 0 0 0 0 0 0 0 0 0 0 0 0 1 1 1 1 1 1 1 1 1 2 2 2 2 2 3 3 3 3 4 4 4 4 5
0 0 0 0 0 0 0 0 0 0 0 0 0 0 0 0 0 0 0 0 0 0 0 0 0 0 1 1 1 1 1 1 1 1 1 2 2 2 2 2 2 3 3 3 3 3 3 4 4
0 0 0 0 0 0 0 0 0 0 0 0 0 0 0 0 0 0 0 0 0 0 0 0 0 0 1 1 1 1 1 1 1 1 1 1 1 2 2 2 2 2 3 2 2 2 2 3 3
0 0 0 0 0 0 0 0 0 0 0 0 0 0 0 0 0 0 0 0 0 0 0 0 0 0 0 1 1 1 1 1 1 1 1 1 1 1 1 1 2 2 2 2 2 2 2 2 2
0 0 0 0 0 0 0 0 0 0 0 0 0 0 0 0 0 0 0 0 0 0 0 0 0 0 0 0 1 1 1 1 1 1 1 0 0 0 1 1 1 2 2 1 1 2 2 2 2
Wind_Speed
5 4 2 3 7 11 23 23 20 17 17 14 11 12 14 14 10 3 4 12 17 19 21 23 20 20 19 18 17 17 17 17 17 18 18 18 18 17 17 17 17 17 17 16 16 16 16 16 15
4 4 3 5 11 17 21 22 21 17 13 11 12 12 12 13 7 1 4 13 17 19 20 21 21 20 20 19 18 17 17 17 17 17 18 18 18 17 17 17 17 17 16 16 16 16 16 15 15
4 5 5 7 14 20 21 16 16 15 13 13 12 12 13 10 7 5 6 15 17 18 19 20 20 20 20 19 18 17 17 17 16 17 17 17 18 18 17 17 16 16 15 15 15 15 15 14 13
3 4 6 11 21 22 21 16 10 11 11 14 14 11 9 5 3 4 10 16 18 18 18 20 19 20 19 19 18 17 17 17 16 16 17 17 18 17 17 16 16 15 15 15 15 15 14 13 13
3 5 10 15 23 21 17 14 11 13 12 12 13 13 10 5 3 6 12 17 18 18 17 20 19 20 19 19 18 17 17 17 16 17 17 17 17 17 17 16 16 15 15 15 15 14 13 12 12
5 5 10 16 21 20 18 15 13 15 14 13 11 12 10 5 5 7 11 15 16 16 17 18 18 17 18 18 17 16 16 16 16 17 17 17 17 17 17 16 16 15 15 14 14 14 13 12 11
7 7 12 16 17 18 16 14 15 15 16 14 10 10 8 6 5 6 9 13 15 16 16 16 18 17 16 15 15 15 14 14 14 15 15 14 15 16 17 16 15 15 14 13 13 13 12 11 11
5 5 11 13 16 16 13 13 14 16 15 12 11 11 8 5 4 6 8 12 14 15 15 16 16 16 16 15 14 13 13 12 13 13 12 12 13 14 14 14 13 13 13 12 12 12 11 11 10
5 8 12 13 12 11 10 11 10 11 11 12 11 11 7 4 5 7 8 11 13 14 14 15 15 15 15 15 14 14 13 12 13 12 13 12 12 14 12 13 11 11 12 12 12 11 11 9 9
7 10 14 9 9 9 9 10 9 9 12 12 11 9 6 5 7 10 11 13 15 16 15 14 15 14 13 11 12 11 11 12 12 12 14 11 10 9 10 12 10 10 10 10 10 10 10 7 7
6 10 10 9 8 9 9 10 9 11 12 12 11 9 7 7 7 9 12 13 14 15 15 14 14 14 13 10 10 8 7 8 10 12 12 9 8 8 8 7 8 9 10 9 9 9 7 6 4
7 9 10 9 8 9 9 9 9 11 11 8 9 8 7 7 8 8 9 11 11 12 14 14 15 14 13 11 9 9 7 7 7 10 12 9 6 7 8 6 7 7 6 7 7 5 7 6 6
8 8 8 9 9 9 8 10 10 10 9 7 7 8 9 8 7 7 7 9 10 11 13 15 15 15 13 11 9 9 8 8 8 8 10 10 8 8 8 6 6 7 6 7 6 6 7 6 6
5 5 6 7 8 8 8 10 9 10 7 7 9 9 9 8 6 5 6 8 10 10 11 12 14 14 13 11 9 9 9 8 8 8 10 11 8 8 7 7 7 6 6 6 6 7 6 5 5
5 5 5 5 6 6 5 7 9 10 7 8 9 9 9 7 6 5 4 5 8 10 10 11 13 13 14 13 11 8 9 9 8 8 10 10 9 9 8 7 7 7 7 7 6 6 5 5 4
4 5 4 2 3 3 5 7 5 6 7 8 8 8 7 7 6 5 4 4 6 8 9 9 10 12 13 11 10 8 8 9 8 7 8 11 10 10 8 7 7 7 6 6 6 6 6 5 5
4 4 4 3 2 2 5 5 4 4 5 6 7 7 6 5 4 3 3 3 4 8 9 9 10 11 11 10 8 8 8 8 7 7 8 10 11 11 9 7 7 8 7 6 6 6 6 5 5
2 3 3 3 3 2 3 4 4 3 3 4 4 5 4 3 2 2 2 2 3 6 7 8 8 10 10 8 7 6 7 7 7 7 8 11 10 11 10 7 9 9 7 7 7 7 6 5 4
4 4 4 5 4 3 2 3 5 4 3 2 2 3 2 1 1 1 2 1 0 3 5 8 8 9 8 7 7 7 7 6 6 7 10 11 11 11 10 8 9 9 8 9 9 7 8 6 5
3 3 3 2 2 2 1 3 3 3 1 1 1 1 1 0 1 2 3 2 1 1 2 4 6 7 8 7 6 5 5 5 6 5 8 10 11 11 9 10 8 9 8 9 9 8 6 5 5
1 2 3 2 2 0 1 1 2 3 3 3 3 2 2 2 2 2 3 1 1 0 2 2 5 7 7 7 5 4 4 4 5 6 6 9 10 11 10 11 9 9 9 8 10 10 9 7 6
1 2 2 2 1 1 2 0 3 4 4 4 4 5 4 4 3 3 2 2 1 0 1 2 3 4 5 6 6 8 6 6 6 6 6 7 9 10 10 10 10 9 8 8 9 9 8 8 6
2 3 2 1 0 1 2 1 3 4 5 5 6 6 5 4 4 3 2 1 1 0 1 2 3 2 3 5 6 7 6 5 4 6 7 7 7 8 9 9 9 9 8 8 9 9 9 7 7
2 2 1 1 1 1 3 1 3 4 5 5 6 6 5 4 4 3 3 2 2 1 2 2 3 2 3 4 5 6 6 5 5 7 7 6 5 6 8 9 8 8 7 8 8 8 9 7 7
2 2 1 1 1 2 2 1 2 4 5 4 5 5 5 5 5 4 4 4 3 2 2 2 2 2 2 3 4 5 5 5 6 6 6 6 5 5 8 8 8 7 7 7 7 7 7 7 8
2 3 3 2 2 2 1 1 3 5 5 5 5 5 5 6 5 6 6 5 4 3 2 2 1 1 1 2 2 3 3 3 3 5 4 4 4 5 6 7 7 6 6 6 6 5 6 6 7
1 2 2 1 1 1 2 1 1 5 6 7 6 6 7 7 7 7 6 6 5 5 4 2 1 1 0 1 2 3 2 2 3 3 4 4 4 3 5 6 6 6 7 6 6 5 6 6 6
2 1 1 0 1 2 2 1 2 4 5 6 7 7 7 7 7 7 7 7 6 5 4 4 3 2 1 0 0 1 1 2 2 2 3 4 4 4 5 5 6 6 7 7 7 5 6 6 5
1 1 1 1 2 1 1 3 4 3 3 4 6 6 7 7 7 7 7 7 6 6 5 5 4 4 3 2 0 0 1 1 3 3 3 3 4 5 6 6 7 7 7 7 7 7 6 6 6
2 1 1 1 1 1 0 3 4 3 4 4 5 6 7 7 7 7 7 7 6 6 6 5 5 4 4 3 2 1 1 1 1 2 2 3 3 4 5 5 5 6 6 7 7 7 7 7 7
Wind_Direction
270 263 242 212 214 223 232 230 229 226 223 223 223 221 224 218 214 210 75 159 155 156 157 157 157 156 154 154 152 153 153 152 152 152 149 148 145 143 141 139 136 133 130 126 121 117 113 109 107
268 229 212 218 222 222 229 228 228 224 219 210 218 224 226 227 236 130 141 156 156 157 158 160 155 156 155 154 154 155 155 155 154 153 150 149 147 144 142 140 137 133 129 125 121 118 115 111 110
248 223 219 222 226 226 225 220 228 226 225 216 215 225 229 227 213 188 155 157 157 158 160 154 156 157 156 155 155 156 156 156 156 154 152 150 148 146 143 140 136 131 127 124 122 121 118 115 114
218 200 226 233 231 230 236 234 235 223 225 226 221 217 223 227 216 178 156 161 160 161 161 153 158 157 156 156 157 157 157 157 156 154 153 152 150 148 143 138 133 130 128 128 127 125 122 118 117
214 215 224 233 237 235 238 241 242 231 226 224 224 224 215 190 159 150 161 164 163 162 160 157 160 159 158 158 158 158 158 158 158 156 155 153 151 148 142 137 135 133 133 133 132 130 126 122 120
204 216 228 233 237 237 235 236 238 238 237 232 229 231 227 194 162 159 166 167 163 161 159 158 159 158 158 159 160 159 158 158 157 156 155 152 148 146 142 140 139 139 138 137 134 132 130 127 124
223 217 237 241 241 240 235 232 234 235 236 234 233 233 222 191 156 163 170 169 164 162 159 160 163 160 158 157 158 157 156 156 156 155 152 147 144 145 145 143 143 142 141 138 135 134 133 130 127
235 227 239 240 241 244 245 238 234 238 240 243 240 229 218 191 171 167 172 170 167 167 165 163 165 165 164 161 157 154 152 152 151 147 143 139 141 145 145 147 143 143 142 139 137 137 135 131 129
220 226 235 239 245 250 253 242 239 241 242 241 242 241 234 210 195 177 174 171 171 172 169 166 166 166 166 163 157 155 149 145 145 141 136 146 155 154 155 147 139 142 143 142 141 140 135 132 131
214 229 235 245 264 271 268 259 252 238 231 234 233 231 213 201 201 191 182 178 178 176 173 171 169 166 164 161 162 165 162 160 166 160 159 163 161 158 154 133 136 139 140 142 141 138 144 165 152
221 237 244 245 259 272 272 267 263 240 236 230 225 220 203 200 202 201 191 186 184 180 174 175 172 169 166 164 167 165 164 166 168 165 166 164 158 154 155 154 150 152 157 157 150 162 171 175 159
242 251 252 252 260 270 272 265 257 243 245 242 232 222 211 209 209 203 195 192 189 182 180 176 175 172 171 168 170 168 165 166 168 170 169 167 163 165 164 167 168 169 174 169 175 182 176 178 174
242 256 258 254 259 266 272 268 261 260 263 249 225 217 208 212 215 209 202 197 190 185 182 179 178 174 173 169 171 174 170 170 170 172 176 174 171 171 168 170 172 177 176 178 181 186 181 185 185
256 255 265 267 262 258 256 267 256 262 253 229 209 212 208 211 220 214 208 202 190 187 186 183 180 178 175 174 174 176 173 171 172 176 182 181 178 175 174 175 178 181 184 184 187 189 187 193 197
260 259 274 268 261 250 240 255 250 264 246 224 211 211 210 206 215 217 210 208 198 192 184 185 181 181 178 178 177 179 175 174 177 178 184 186 183 180 179 182 184 185 185 186 190 190 199 199 203
243 240 249 267 269 255 227 242 258 267 234 221 216 210 208 206 215 220 209 208 198 188 186 183 181 182 180 179 176 179 179 177 178 179 185 189 187 184 183 187 190 187 185 189 191 194 199 201 210
211 226 249 285 266 259 230 246 276 282 240 224 217 207 204 205 214 219 195 209 205 183 182 178 185 181 178 176 174 180 177 179 180 182 187 191 190 188 189 191 189 187 189 193 192 201 204 206 214
224 239 264 285 315 273 244 258 294 304 268 236 222 208 195 199 226 219 177 197 215 177 175 178 184 182 176 172 169 175 177 180 184 187 191 192 192 192 192 191 191 188 190 194 196 199 204 212 215
259 248 269 292 297 293 257 289 315 317 280 236 220 203 178 202 265 107 110 105 169 152 177 180 183 183 175 176 176 177 183 182 188 195 196 197 196 194 195 193 194 193 195 197 198 199 203 206 205
228 239 268 302 314 290 285 306 329 336 316 295 203 158 120 121 96 78 85 64 33 118 157 180 186 184 181 185 178 179 179 186 190 194 200 201 200 198 197 198 197 197 198 199 200 197 202 200 199
304 269 279 295 342 225 247 18 58 62 59 55 62 78 71 51 55 62 68 64 39 86 176 195 192 187 180 180 173 173 174 180 188 194 198 202 201 200 201 204 202 200 202 202 201 199 202 203 200
352 331 280 263 275 26 327 77 61 47 54 53 50 52 43 32 39 55 53 29 27 208 177 202 189 191 181 175 181 186 196 204 201 193 197 200 203 200 201 203 203 201 202 205 205 204 206 207 205
347 332 311 267 89 52 7 260 68 47 51 43 37 36 28 26 30 36 25 346 330 59 143 183 169 174 187 190 190 196 207 210 202 193 195 198 201 202 200 200 201 201 202 205 202 201 204 206 210
306 293 242 201 222 76 6 327 64 32 10 19 28 28 22 31 36 23 5 4 5 49 115 133 145 161 178 179 188 198 204 205 208 200 194 198 199 199 201 200 201 202 202 206 206 203 204 206 211
342 295 200 138 91 56 18 352 51 19 7 10 15 18 20 31 38 30 17 19 19 47 79 110 141 171 171 161 180 197 197 196 205 209 202 199 197 195 200 199 198 199 200 203 202 203 203 206 211
359 332 349 20 64 72 49 27 47 21 31 40 38 33 34 33 34 31 22 17 17 31 56 83 94 117 157 156 179 196 191 199 205 208 202 204 202 197 198 198 196 196 196 196 198 203 203 204 214
350 34 353 30 64 81 67 53 70 35 39 42 41 38 37 29 26 25 25 24 20 23 26 46 55 34 96 176 186 179 183 205 204 204 199 205 210 199 199 196 195 192 192 193 194 202 204 204 211
355 5 256 312 66 94 89 52 9 359 21 31 30 26 25 22 24 24 24 22 19 21 19 27 35 1 340 49 132 149 183 216 208 205 209 207 207 200 198 200 199 197 192 192 197 195 199 199 201
38 53 6 54 348 314 101 75 22 9 20 25 22 18 16 14 16 20 21 19 17 18 19 23 22 16 15 16 4 168 240 230 197 202 210 211 208 202 203 203 200 198 195 194 195 195 193 195 197
309 323 290 310 71 335 43 72 36 31 34 29 22 20 22 21 17 18 19 18 17 13 12 12 9 9 6 360 358 1 313 261 185 196 216 219 212 209 209 206 203 198 196 196 197 193 189 192 192